History for HRYR

Kigali, Rwanda

Daily Weekly Monthly
Daily Summary for Thursday, March 21, 2019
  Actual: Average: Record:
Temperature
Mean Temperature: 72 °F / 22 °C - :  
Max Temperature: 82 °F / 27 °C - - ()
Min Temperature: 62 °F / 17 °C - - ()
Cooling Degree Days 7    
Growing Degree Days 22 (Base 50)    
Moisture
Dew Point 61 °F / 16 °C    
Average Humidity 75    
Maximum Humidity 88    
Minimum Humidity 31    
Precipitation
Precipitation 0.35 in / 9.0 cm 0.21 in / 5.3 cm - ()
Sea Level Pressure
Sea Level Pressure 30.07 in / 1018.31 hPa   
Wind
Wind Speed 4 mph / 6 km/h ()  
Max Wind Speed 12 mph / 18 km/h   
Max Gust Speed 23 mph / 37 km/h   
Visibility 6.2 miles / 10.0 kilometers   
Events Rain , Thunderstorm   

Key: T is trace of precipitation, MM is missing value
Source: Averaged Metar Reports

Graphs

Observations

History Graphs Observations

Obs Go Here...

Features

Weather Apps

WunderRadio

Weather Underground Apps
Check out our wide variety of mobile and setup applications.

Weather Underground Applications

Top of Page

© Copyright 2019
The Weather Company, LLC
Time(CAT)TemperatureDew PointHumidity Sea Level Pressure Visibility Wind DirectionWind SpeedGust SpeedPrecipitationEvents Conditions
12:00 AM 64.4 °F / 18.0 °C 60.8 °F / 16.0 °C 88% 30.06 in / 1018 hPa 6.2 miles / 10.0 kilometers ENE 3.5 mph / 5.6 km/h - N/A   Scattered Clouds
12:30 AM 66.2 °F / 19.0 °C 59.0 °F / 15.0 °C 78% 30.06 in / 1018 hPa 6.2 miles / 10.0 kilometers NNE 4.6 mph / 7.4 km/h - N/A   Scattered Clouds
1:00 AM 66.2 °F / 19.0 °C 60.8 °F / 16.0 °C 83% 30.04 in / 1017 hPa 6.2 miles / 10.0 kilometers South 3.5 mph / 5.6 km/h - N/A   Scattered Clouds
1:30 AM 64.4 °F / 18.0 °C 60.8 °F / 16.0 °C 88% 30.06 in / 1018 hPa 6.2 miles / 10.0 kilometers SW 3.5 mph / 5.6 km/h - N/A   Scattered Clouds
2:00 AM 64.4 °F / 18.0 °C 59.0 °F / 15.0 °C 83% 30.04 in / 1017 hPa 6.2 miles / 10.0 kilometers West 5.8 mph / 9.3 km/h - N/A   Scattered Clouds
2:30 AM 64.4 °F / 18.0 °C 59.0 °F / 15.0 °C 83% 30.04 in / 1017 hPa 6.2 miles / 10.0 kilometers NW 5.8 mph / 9.3 km/h - N/A   Scattered Clouds
3:00 AM 64.4 °F / 18.0 °C 59.0 °F / 15.0 °C 83% 30.04 in / 1017 hPa 6.2 miles / 10.0 kilometers NW 5.8 mph / 9.3 km/h - N/A   Scattered Clouds
3:30 AM 64.4 °F / 18.0 °C 59.0 °F / 15.0 °C 83% 30.01 in / 1016 hPa 6.2 miles / 10.0 kilometers NNW 6.9 mph / 11.1 km/h - N/A   Scattered Clouds
4:00 AM 64.4 °F / 18.0 °C 59.0 °F / 15.0 °C 83% 30.04 in / 1017 hPa 6.2 miles / 10.0 kilometers Variable 2.3 mph / 3.7 km/h - N/A   Scattered Clouds
4:30 AM 62.6 °F / 17.0 °C 59.0 °F / 15.0 °C 88% 30.04 in / 1017 hPa 6.2 miles / 10.0 kilometers South 1.2 mph / 1.9 km/h - N/A   Scattered Clouds
5:00 AM 64.4 °F / 18.0 °C 59.0 °F / 15.0 °C 83% 30.04 in / 1017 hPa 6.2 miles / 10.0 kilometers Variable 2.3 mph / 3.7 km/h - N/A   Scattered Clouds
5:30 AM 62.6 °F / 17.0 °C 59.0 °F / 15.0 °C 88% 30.06 in / 1018 hPa 6.2 miles / 10.0 kilometers NW 2.3 mph / 3.7 km/h - N/A   Scattered Clouds
6:00 AM 62.6 °F / 17.0 °C 59.0 °F / 15.0 °C 88% 30.06 in / 1018 hPa 6.2 miles / 10.0 kilometers Calm Calm - N/A   Scattered Clouds
6:30 AM 64.4 °F / 18.0 °C 59.0 °F / 15.0 °C 83% 30.09 in / 1019 hPa 6.2 miles / 10.0 kilometers Calm Calm - N/A   Scattered Clouds
7:00 AM 64.4 °F / 18.0 °C 60.8 °F / 16.0 °C 88% 30.09 in / 1019 hPa 6.2 miles / 10.0 kilometers Variable 2.3 mph / 3.7 km/h - N/A   Scattered Clouds
7:30 AM 68.0 °F / 20.0 °C 60.8 °F / 16.0 °C 78% 30.09 in / 1019 hPa 6.2 miles / 10.0 kilometers Calm Calm - N/A   Scattered Clouds
8:00 AM 68 °F / 20 °C 60 °F / 16 °C 68%  in /  hPa 6 miles / 10 kilometers Calm Calm - -   Partly Cloudy
8:00 AM 71.6 °F / 22.0 °C 60.8 °F / 16.0 °C 69% 30.09 in / 1019 hPa 6.2 miles / 10.0 kilometers Variable 1.2 mph / 1.9 km/h - N/A   Scattered Clouds
8:30 AM 71.6 °F / 22.0 °C 62.6 °F / 17.0 °C 73% 30.12 in / 1020 hPa 6.2 miles / 10.0 kilometers Variable 2.3 mph / 3.7 km/h - N/A   Scattered Clouds
9:00 AM 71.6 °F / 22.0 °C 62.6 °F / 17.0 °C 73% 30.12 in / 1020 hPa 6.2 miles / 10.0 kilometers SSE 6.9 mph / 11.1 km/h - N/A   Scattered Clouds
9:30 AM 75.2 °F / 24.0 °C 62.6 °F / 17.0 °C 65% 30.12 in / 1020 hPa 6.2 miles / 10.0 kilometers SSE 4.6 mph / 7.4 km/h - N/A   Scattered Clouds
10:00 AM 77.0 °F / 25.0 °C 59.0 °F / 15.0 °C 54% 30.12 in / 1020 hPa 6.2 miles / 10.0 kilometers NE 5.8 mph / 9.3 km/h - N/A   Scattered Clouds
11:00 AM 80 °F / 27 °C 55 °F / 13 °C 31%  in /  hPa 6 miles / 10 kilometers SSE 6.9 mph / 11.1 km/h - -   Partly Cloudy
11:00 AM 82.4 °F / 28.0 °C 59.0 °F / 15.0 °C 45% 30.12 in / 1020 hPa 6.2 miles / 10.0 kilometers SSE 6.9 mph / 11.1 km/h - N/A   Scattered Clouds
11:30 AM 78.8 °F / 26.0 °C 60.8 °F / 16.0 °C 54% 30.12 in / 1020 hPa 6.2 miles / 10.0 kilometers South 8.1 mph / 13.0 km/h - N/A   Mostly Cloudy
12:00 PM 68.0 °F / 20.0 °C 62.6 °F / 17.0 °C 83% 30.12 in / 1020 hPa 6.2 miles / 10.0 kilometers SSE 11.5 mph / 18.5 km/h - N/A Rain Heavy Rain
12:30 PM 71.6 °F / 22.0 °C 62.6 °F / 17.0 °C 73% 30.09 in / 1019 hPa 6.2 miles / 10.0 kilometers South 8.1 mph / 13.0 km/h - N/A Rain , Thunderstorm Light Thunderstorms and Rain
1:00 PM 62.6 °F / 17.0 °C 59.0 °F / 15.0 °C 88% 30.09 in / 1019 hPa 6.2 miles / 10.0 kilometers ESE 11.5 mph / 18.5 km/h 23.0 mph / 37.0 km/h N/A Rain , Thunderstorm Thunderstorms and Rain
1:30 PM 64.4 °F / 18.0 °C 60.8 °F / 16.0 °C 88% 30.09 in / 1019 hPa 6.2 miles / 10.0 kilometers Variable 2.3 mph / 3.7 km/h - N/A   Scattered Clouds
2:00 PM 67 °F / 20 °C 62 °F / 17 °C 80%  in /  hPa 6 miles / 10 kilometers Calm Calm - -   Mostly Cloudy
2:00 PM 68.0 °F / 20.0 °C 62.6 °F / 17.0 °C 83% 30.09 in / 1019 hPa 6.2 miles / 10.0 kilometers Calm Calm - N/A   Mostly Cloudy
3:00 PM 73.4 °F / 23.0 °C 60.8 °F / 16.0 °C 65% 30.04 in / 1017 hPa 6.2 miles / 10.0 kilometers Variable 2.3 mph / 3.7 km/h - N/A   Mostly Cloudy
3:30 PM 75.2 °F / 24.0 °C 64.4 °F / 18.0 °C 69% 30.04 in / 1017 hPa 6.2 miles / 10.0 kilometers Variable 4.6 mph / 7.4 km/h - N/A   Mostly Cloudy
4:00 PM 75.2 °F / 24.0 °C 62.6 °F / 17.0 °C 65% 30.04 in / 1017 hPa 6.2 miles / 10.0 kilometers South 5.8 mph / 9.3 km/h - N/A   Scattered Clouds
5:00 PM 74 °F / 24 °C 63 °F / 17 °C 60%  in /  hPa 6 miles / 10 kilometers South 5.8 mph / 9.3 km/h - -   Scattered Clouds
5:00 PM 73.4 °F / 23.0 °C 62.6 °F / 17.0 °C 69% 30.04 in / 1017 hPa 6.2 miles / 10.0 kilometers South 5.8 mph / 9.3 km/h - N/A   Mostly Cloudy
5:30 PM 75.2 °F / 24.0 °C 62.6 °F / 17.0 °C 65% 30.04 in / 1017 hPa 6.2 miles / 10.0 kilometers SSW 3.5 mph / 5.6 km/h - N/A   Partly Cloudy
6:00 PM 71.6 °F / 22.0 °C 62.6 °F / 17.0 °C 73% 30.04 in / 1017 hPa 6.2 miles / 10.0 kilometers West 6.9 mph / 11.1 km/h - N/A   Scattered Clouds
6:30 PM 69.8 °F / 21.0 °C 62.6 °F / 17.0 °C 78% 30.04 in / 1017 hPa 6.2 miles / 10.0 kilometers NW 5.8 mph / 9.3 km/h - N/A   Scattered Clouds
7:00 PM 69.8 °F / 21.0 °C 60.8 °F / 16.0 °C 73% 30.06 in / 1018 hPa 6.2 miles / 10.0 kilometers NW 4.6 mph / 7.4 km/h - N/A   Scattered Clouds
7:30 PM 68.0 °F / 20.0 °C 60.8 °F / 16.0 °C 78% 30.06 in / 1018 hPa 6.2 miles / 10.0 kilometers West 5.8 mph / 9.3 km/h - N/A   Scattered Clouds
8:00 PM 69.8 °F / 21.0 °C 60.8 °F / 16.0 °C 73% 30.09 in / 1019 hPa 6.2 miles / 10.0 kilometers WSW 3.5 mph / 5.6 km/h - N/A   Scattered Clouds
8:30 PM 69.8 °F / 21.0 °C 60.8 °F / 16.0 °C 73% 30.09 in / 1019 hPa 6.2 miles / 10.0 kilometers SSW 3.5 mph / 5.6 km/h - N/A   Scattered Clouds
9:00 PM 68.0 °F / 20.0 °C 60.8 °F / 16.0 °C 78% 30.09 in / 1019 hPa 6.2 miles / 10.0 kilometers South 3.5 mph / 5.6 km/h - N/A   Scattered Clouds
10:00 PM 68.0 °F / 20.0 °C 60.8 °F / 16.0 °C 78% 30.12 in / 1020 hPa 6.2 miles / 10.0 kilometers Variable 2.3 mph / 3.7 km/h - N/A   Partly Cloudy
11:30 PM 66.2 °F / 19.0 °C 60.8 °F / 16.0 °C 83% 30.12 in / 1020 hPa 6.2 miles / 10.0 kilometers North 3.5 mph / 5.6 km/h - N/A   Partly Cloudy